Theta_e
326 333 337 339 333 325 323 321 323 328 331 332 331 327 324 325 329 332 333 331 331 331 330 329 327 325 324 321 319 318 318 316 317 318 322 324 328 334 331 333 335 335 337
328 335 338 338 330 331 333 327 329 330 328 326 325 329 330 331 329 330 329 330 331 329 327 327 326 327 326 323 319 319 319 319 317 318 317 321 323 331 331 332 333 334 333
331 335 337 337 328 327 327 325 327 327 326 328 330 331 329 327 328 330 330 329 329 329 328 325 325 328 327 326 322 322 320 317 317 318 318 319 322 325 331 334 333 334 333
336 335 335 334 330 328 324 323 324 324 325 329 332 330 328 330 330 331 333 331 330 326 323 321 321 322 325 325 325 324 320 317 318 319 318 320 321 322 326 330 334 335 332
338 337 336 335 334 332 327 324 324 327 329 333 332 330 328 330 331 329 331 329 326 324 322 322 321 320 324 323 324 322 319 318 318 319 320 321 321 323 324 325 330 337 334
337 337 336 335 334 329 328 324 326 330 333 334 331 329 330 330 330 327 329 328 326 324 324 321 322 323 325 325 325 320 319 319 320 319 319 320 321 322 324 325 327 332 338
337 336 337 337 334 330 327 327 330 334 335 332 327 327 328 329 328 326 327 325 325 324 324 322 323 323 323 324 322 319 320 320 320 320 319 320 321 321 321 323 324 328 334
337 336 334 332 331 326 329 332 335 335 334 329 325 326 326 327 329 327 327 325 324 323 323 322 323 324 322 322 322 321 321 320 318 317 319 320 321 321 320 321 324 327 332
336 334 330 327 326 327 330 335 336 337 335 334 331 328 325 330 329 328 327 324 323 321 320 322 325 324 322 322 322 320 320 320 318 318 319 320 321 321 324 323 324 327 331
336 331 328 329 327 331 336 338 338 337 336 335 331 329 328 329 328 328 324 323 323 323 323 323 322 322 322 323 321 321 319 319 318 318 317 319 321 320 332 330 324 328 335
339 329 331 332 332 334 337 339 338 337 335 331 328 329 328 327 328 326 325 323 321 320 323 322 321 323 323 322 322 321 319 319 316 318 317 318 319 319 323 329 328 326 333
332 333 335 336 337 338 338 336 337 335 332 327 327 327 327 326 327 326 325 324 324 322 321 320 321 323 322 322 322 319 321 320 318 317 317 318 319 319 324 331 332 328 331
344 341 341 341 340 338 337 335 334 330 329 327 329 327 327 327 326 324 323 324 321 318 319 321 322 322 322 321 317 320 321 321 319 318 319 317 317 319 319 333 334 332 328
330 334 328 336 338 336 335 334 333 329 322 320 327 327 325 324 323 324 322 318 317 319 320 321 322 322 320 319 317 318 319 320 319 318 319 317 317 319 319 321 333 339 337
323 324 325 324 332 334 332 330 329 327 324 326 326 325 322 321 321 320 318 317 314 318 320 321 320 318 318 319 316 317 317 318 320 319 319 319 320 317 319 320 321 329 335
327 330 333 334 334 331 329 328 327 326 326 326 324 322 321 320 319 319 317 316 315 317 318 318 317 317 315 315 315 316 316 316 316 318 318 319 320 317 318 319 320 320 322
331 332 333 331 329 327 327 327 327 326 326 325 322 320 319 318 317 317 315 313 316 315 316 315 314 313 314 314 313 313 314 313 313 315 317 318 320 319 317 317 319 320 321
323 325 327 328 325 327 328 328 326 322 322 321 320 319 318 317 316 315 313 316 315 314 314 313 314 313 312 312 310 310 311 311 311 312 312 316 317 320 319 317 318 320 321
325 328 327 327 329 327 326 325 323 323 322 319 317 317 316 314 314 314 310 311 312 311 312 311 310 309 308 307 307 307 306 307 307 308 308 311 315 316 318 319 319 318 320
328 326 329 329 327 326 324 323 320 319 317 316 316 315 314 314 313 312 310 312 311 310 309 308 307 306 305 304 305 305 305 305 305 304 305 307 309 311 314 316 318 320 321
326 326 323 321 324 324 323 322 316 317 317 317 316 314 311 308 309 309 309 309 308 307 306 305 304 303 303 303 299 299 301 302 302 301 301 302 302 306 306 310 314 317 319
325 324 323 323 323 322 320 318 318 318 317 316 314 313 310 307 306 305 308 307 306 305 304 303 302 302 301 297 294 294 296 299 300 299 300 300 299 300 300 303 308 314 317
323 323 323 322 321 321 320 319 317 317 317 315 313 312 309 307 306 304 306 305 305 303 303 300 298 297 295 292 292 293 295 297 298 297 298 298 298 299 299 299 301 304 311
321 321 319 318 319 318 317 316 315 316 316 313 311 310 307 307 306 304 303 303 303 302 299 297 296 295 292 292 292 293 294 295 296 297 297 297 298 298 299 299 300 301 301
316 316 315 315 315 314 314 313 312 313 313 311 310 308 307 306 304 303 301 301 299 297 296 296 296 295 294 292 293 293 293 293 294 295 295 296 296 297 297 299 299 299 300
313 313 313 312 312 311 312 311 311 310 310 309 308 307 305 304 303 302 300 299 297 297 296 296 295 295 295 294 292 292 292 292 293 294 295 294 294 295 296 297 298 298 299
Wind_Speed
23 19 13 12 11 10 6 4 3 5 7 10 11 12 12 13 14 14 17 16 14 15 17 17 18 19 18 18 17 19 24 27 31 38 37 34 34 30 30 30 30 32 35
26 21 18 18 16 13 10 8 7 8 8 9 9 10 13 16 16 15 16 16 16 17 17 17 20 22 21 19 19 23 26 28 32 43 43 38 30 30 30 31 32 33 35
28 25 21 19 14 15 15 11 8 7 7 6 8 12 15 14 11 11 13 16 16 19 19 19 23 23 25 22 21 24 27 32 32 39 45 38 38 29 32 29 32 33 31
30 26 22 18 14 11 10 9 7 6 7 8 9 12 11 12 14 15 16 18 16 18 17 21 24 26 26 25 24 26 28 30 34 38 47 43 42 36 29 34 33 32 33
29 24 22 20 15 12 11 9 7 7 7 10 13 14 13 12 15 17 17 18 18 17 20 23 24 26 25 26 25 26 27 32 35 39 42 42 42 40 37 31 30 31 34
29 26 23 20 19 17 13 10 10 10 12 14 17 17 15 15 18 18 19 19 18 20 23 21 25 25 25 26 25 25 28 30 30 34 44 44 44 42 42 38 32 31 33
31 27 26 24 21 18 15 14 14 16 16 17 16 17 17 18 19 18 17 19 22 24 22 20 21 23 24 22 22 25 27 28 30 37 39 42 44 42 40 42 38 32 34
35 28 26 24 22 19 18 18 18 18 18 15 16 18 20 18 19 19 18 22 25 29 26 25 22 22 21 22 23 25 29 24 29 34 34 42 43 40 38 41 38 32 32
31 28 27 24 22 21 23 21 20 21 21 22 21 22 21 19 19 20 18 21 28 23 19 21 18 21 21 21 23 27 26 27 34 40 37 47 46 53 31 36 39 33 35
30 28 24 24 24 25 24 23 24 24 24 22 23 24 19 19 18 18 16 19 17 25 24 17 20 21 20 24 26 25 26 25 34 39 43 47 49 49 17 29 41 40 31
26 21 21 24 24 24 22 24 25 24 23 19 21 20 22 20 19 17 20 24 24 23 21 18 16 18 21 24 23 27 20 22 31 36 43 45 53 49 24 15 30 43 38
23 23 25 25 21 21 23 23 23 18 16 19 22 18 11 17 18 19 21 20 18 19 21 16 15 18 23 23 26 24 19 21 27 31 43 43 49 53 29 13 17 32 41
18 26 22 18 20 20 23 23 18 13 16 19 19 14 16 16 14 16 14 10 13 16 16 13 15 17 16 21 22 21 20 21 23 27 33 39 46 49 44 8 8 17 36
9 8 26 16 12 14 17 13 14 18 15 22 17 14 11 14 13 8 9 11 10 10 8 5 7 11 16 21 24 20 18 17 18 21 26 29 36 48 49 35 7 15 21
2 11 19 23 24 20 19 16 15 15 17 14 14 14 14 12 10 11 13 10 9 6 2 3 3 7 16 25 20 18 17 17 19 18 20 26 30 40 45 48 39 13 5
15 12 21 14 10 12 12 12 11 8 10 13 14 12 13 12 12 11 10 9 5 3 5 6 8 15 20 14 16 17 16 17 19 16 16 21 26 32 40 42 44 40 29
15 16 15 11 13 14 13 11 10 8 8 10 9 8 8 6 5 7 10 4 6 9 10 11 14 12 11 12 12 14 15 16 17 18 18 18 20 24 34 36 38 43 45
11 13 10 11 12 13 12 9 8 8 8 8 6 5 7 8 9 7 5 5 6 7 9 9 7 6 8 8 9 12 14 15 17 19 21 21 23 23 23 25 31 29 33
9 9 11 15 12 10 11 12 10 8 9 8 7 7 8 7 9 9 9 7 9 6 1 2 3 5 7 7 7 8 10 12 14 16 18 19 20 22 20 19 22 24 27
12 9 11 10 13 12 13 12 10 8 7 8 7 7 9 11 11 12 5 3 1 2 3 3 4 6 7 7 8 8 8 9 11 13 15 17 18 19 19 19 17 17 22
8 11 10 9 9 12 12 9 8 4 6 9 10 10 11 7 7 6 3 3 3 4 6 6 7 7 9 12 12 9 7 7 9 11 13 16 18 20 20 17 16 16 16
11 10 9 10 12 12 9 5 6 7 10 9 11 9 7 7 7 4 4 2 2 1 5 7 7 9 10 10 8 8 6 5 7 9 10 14 17 18 20 20 18 16 17
10 10 13 13 13 12 10 8 6 11 11 9 9 8 6 5 6 7 4 5 4 6 10 8 8 7 6 6 7 9 10 10 9 11 10 12 14 16 19 22 21 21 17
9 10 10 8 9 10 11 11 7 11 12 8 7 7 5 3 4 7 5 4 7 8 9 7 4 5 4 4 5 7 8 9 8 8 8 8 10 9 13 17 20 21 23
4 7 6 4 7 9 10 7 8 8 11 10 13 10 8 7 4 3 1 5 5 2 3 7 8 6 4 3 3 4 4 5 5 7 8 7 7 7 8 11 13 16 18
3 7 9 9 10 11 9 10 10 9 11 9 11 12 12 11 10 10 11 8 4 5 8 8 9 7 5 4 6 4 2 1 2 4 6 7 6 6 7 9 8 12 12
Wind_Direction
209 214 224 213 238 250 238 247 272 286 279 281 287 293 299 301 304 297 293 292 294 287 294 299 300 303 305 312 315 331 341 341 332 328 327 336 310 291 283 271 266 262 256
212 207 218 222 236 235 242 249 255 271 282 288 292 297 302 303 302 295 298 294 285 290 291 293 297 296 299 303 309 325 331 329 327 330 325 323 327 295 283 280 269 264 259
206 205 215 227 229 223 229 234 245 268 295 303 316 316 314 315 307 311 308 298 297 292 300 295 299 295 299 293 301 324 325 329 327 327 327 324 320 317 282 280 272 265 261
208 206 213 225 236 234 229 230 248 273 292 303 302 307 310 313 315 316 306 297 304 307 311 311 303 301 297 294 297 313 321 322 326 325 329 326 322 318 289 277 276 268 257
204 208 215 225 237 246 241 236 227 246 275 280 287 290 292 305 302 298 301 305 308 307 311 308 303 301 299 292 300 306 313 317 322 326 328 326 322 314 308 289 273 273 262
203 208 213 226 237 240 236 235 232 253 268 271 285 283 283 292 296 291 292 302 301 306 311 314 311 306 301 295 293 307 304 312 318 328 331 323 320 311 296 291 280 268 261
198 204 215 228 235 236 237 238 236 247 256 274 284 285 288 294 292 295 288 299 293 299 299 307 308 310 310 303 300 298 307 313 311 311 328 318 310 307 294 282 275 258 254
193 205 221 232 235 238 239 239 237 248 259 279 286 301 295 299 290 289 293 307 311 307 299 304 311 312 311 305 304 304 306 311 332 329 318 327 329 316 290 267 260 258 249
208 217 224 229 232 233 236 237 245 249 261 268 284 288 294 292 286 287 304 309 321 318 304 300 309 312 309 303 304 308 310 315 332 339 328 344 326 324 287 253 244 239 242
213 219 230 233 236 235 238 237 241 249 264 263 287 293 282 288 288 283 294 306 314 305 317 314 318 306 303 307 311 314 315 328 344 342 341 347 346 342 288 246 227 221 232
219 221 232 234 238 239 240 240 242 252 252 276 284 291 293 295 293 285 298 298 301 296 305 317 311 304 304 308 311 318 304 323 343 336 344 353 351 353 2 278 237 221 218
219 230 238 232 234 237 241 251 244 244 263 310 287 293 292 293 283 284 297 296 287 301 303 305 290 291 300 309 316 314 300 303 332 344 348 356 351 357 6 274 251 236 225
246 229 223 214 229 233 248 252 242 272 298 292 293 296 282 274 288 302 300 298 312 296 298 292 289 292 299 313 323 320 310 306 329 346 353 358 7 1 14 39 258 241 225
38 288 357 308 261 235 236 246 259 282 306 296 287 264 262 284 293 283 293 310 314 319 311 291 279 281 297 315 328 334 336 333 344 349 354 0 8 16 18 29 29 197 227
143 277 279 252 256 258 268 272 272 272 275 268 269 277 282 282 274 284 303 313 327 337 327 254 195 271 303 312 332 346 350 354 350 355 356 360 11 15 21 32 36 37 194
250 248 237 254 246 259 264 253 247 255 249 259 273 286 289 286 288 286 298 315 317 301 238 258 287 306 315 334 349 351 358 357 6 5 5 11 16 19 18 27 33 41 45
214 223 230 228 232 244 245 251 277 268 262 272 286 297 302 298 289 314 321 294 223 250 273 299 317 333 2 357 358 3 17 21 17 29 25 18 16 26 29 22 26 37 43
205 218 217 219 232 225 235 263 284 283 272 282 294 290 295 302 307 359 358 209 228 264 301 323 358 12 12 21 27 22 17 26 28 26 29 27 31 30 30 30 21 32 31
190 219 221 217 221 251 263 265 263 243 241 259 287 276 284 316 321 342 347 281 278 304 23 33 26 24 24 22 23 13 7 11 19 25 28 24 27 35 29 31 33 29 29
210 233 209 219 245 253 253 261 253 253 277 273 299 309 302 288 290 310 330 341 28 49 26 23 12 0 354 354 349 347 353 357 12 24 32 31 26 28 26 23 30 37 23
237 238 246 272 240 253 260 269 259 235 258 265 285 297 316 303 292 299 320 44 43 37 4 4 352 335 329 336 344 336 341 1 14 29 39 40 36 28 28 32 32 37 41
261 228 238 233 251 257 245 230 208 226 263 275 295 304 314 337 350 284 183 88 63 118 290 304 291 292 304 342 7 19 43 65 45 42 46 49 46 46 39 36 38 45 51
251 251 244 248 266 233 226 215 245 265 247 277 289 298 306 319 344 11 181 131 228 262 292 300 316 304 331 32 60 60 68 77 66 57 65 54 48 52 52 45 42 45 47
232 244 260 265 246 244 245 257 254 235 238 224 262 267 286 292 347 355 167 163 236 278 286 297 346 17 48 56 67 70 70 72 63 47 49 64 58 51 56 53 54 52 55
223 264 263 258 266 272 269 263 255 254 267 260 228 231 247 262 275 291 220 238 267 268 305 310 322 350 9 42 43 54 63 63 44 21 25 45 56 52 49 56 51 61 57
303 249 251 259 266 271 244 242 239 256 253 244 231 237 224 220 224 228 232 237 221 240 273 296 313 328 11 27 25 16 18 52 53 11 19 28 32 47 46 65 49 51 52